Dewpoint
65 66 65 64 63 63 64 64 64 64 64 64 64 64 64 66 66 66 66 66 67 66 66 66 68 69 70 69 69 69 69 67 68 66 66 67 66 66 66 66 65 65
64 65 66 64 64 65 64 65 65 64 64 64 64 64 64 66 66 66 66 66 67 67 66 66 66 67 68 68 68 68 67 68 67 68 67 66 67 66 66 66 65 66
64 65 65 64 63 64 63 64 65 65 64 64 65 64 64 66 65 66 66 65 65 66 67 66 66 66 67 67 67 67 67 67 66 66 67 66 66 66 66 66 66 66
64 64 64 63 63 64 64 64 65 65 64 64 64 64 64 65 66 65 66 68 66 65 66 66 66 65 66 66 66 66 66 67 66 66 66 66 67 66 66 66 66 66
64 64 64 64 64 65 64 64 64 64 64 64 64 65 66 66 66 65 65 65 66 65 65 65 65 65 66 66 66 66 66 66 66 66 66 66 66 66 66 66 66 66
64 64 65 64 64 64 64 64 64 64 64 63 64 65 64 65 65 65 65 65 65 65 65 65 65 65 65 66 65 66 66 66 66 66 66 66 66 66 66 66 66 66
64 64 64 64 64 64 64 64 64 65 64 64 64 64 64 64 64 65 65 65 65 66 65 65 65 65 65 65 65 65 65 65 65 65 65 65 66 65 65 66 66 66
64 64 64 64 64 64 64 63 63 64 64 64 63 63 64 63 64 64 65 65 64 64 65 65 64 64 64 64 65 65 65 65 65 65 65 65 65 65 65 65 65 65
64 64 64 64 63 63 63 63 63 64 64 63 63 62 64 64 63 64 64 64 64 64 64 64 64 64 64 64 64 64 64 64 65 65 65 65 64 64 64 64 64 64
64 64 64 63 62 63 62 62 62 63 64 63 63 62 62 64 64 64 64 64 63 64 63 63 63 64 64 64 64 64 64 64 64 65 65 65 65 65 64 64 64 63
64 64 64 63 62 62 62 62 62 62 63 63 63 62 62 63 64 64 63 63 63 63 63 63 63 63 64 64 64 64 64 64 64 64 64 65 65 65 64 65 64 63
64 64 63 63 63 62 62 62 62 63 62 63 63 62 63 63 63 63 64 63 63 63 63 63 63 63 64 64 64 64 64 64 64 65 65 64 64 64 64 64 64 64
64 64 64 63 64 63 63 62 62 62 62 62 63 63 62 62 63 63 64 64 64 64 64 63 64 64 64 64 64 64 64 64 64 64 65 64 64 64 64 63 63 63
65 66 65 65 64 64 63 63 63 63 64 64 64 64 63 62 62 63 63 64 64 64 63 64 64 63 64 64 64 65 64 64 65 64 64 64 64 64 63 63 63 63
66 66 65 65 64 63 63 63 63 63 64 64 64 63 64 63 63 62 62 62 63 63 63 63 63 63 63 63 64 64 64 64 64 64 64 64 64 63 63 63 63 63
66 66 65 65 64 63 63 63 63 63 63 63 62 62 62 63 62 62 60 60 61 61 62 62 62 62 63 62 62 63 63 63 64 64 64 64 64 64 63 63 63 63
66 65 65 64 64 64 63 63 63 63 63 63 62 62 62 62 63 61 60 60 60 60 60 61 61 61 61 60 60 62 63 63 63 64 64 64 64 63 63 63 63 63
65 64 64 65 64 64 64 64 63 63 63 63 62 62 62 62 62 61 61 60 60 60 60 61 60 61 59 59 60 60 62 64 63 63 63 63 63 63 63 63 63 63
64 63 64 65 65 64 64 63 64 64 63 62 62 62 62 62 61 61 61 61 61 60 60 60 60 60 58 58 59 59 60 62 64 64 63 63 63 63 63 63 63 63
64 64 64 65 65 65 64 64 64 63 63 62 62 62 62 61 61 61 61 61 61 61 61 61 61 60 58 57 57 58 58 60 62 63 63 63 63 63 63 63 63 63
65 64 63 64 65 64 64 64 64 63 63 63 62 62 62 61 61 61 61 62 61 61 61 61 62 59 57 57 56 56 57 59 61 62 62 62 63 63 63 63 63 62
63 63 62 62 65 65 64 63 63 63 63 63 63 62 62 62 62 61 61 61 61 61 61 61 62 58 57 57 56 56 57 60 61 61 61 61 62 63 63 63 63 62
64 62 61 63 64 64 64 64 64 64 63 63 62 62 61 61 61 61 62 61 61 62 62 62 62 60 56 55 55 56 57 61 61 61 61 61 60 62 62 62 62 62
64 63 63 64 64 64 64 63 63 63 63 63 62 62 61 61 61 62 62 62 61 62 62 62 61 60 56 54 54 55 58 60 61 60 60 60 60 60 61 61 61 61
66 65 65 64 64 64 63 63 62 63 63 63 63 62 62 62 63 62 62 63 63 62 63 63 61 59 56 54 53 54 57 60 61 60 60 59 59 60 60 59 58 61
66 65 65 64 64 64 64 63 63 63 63 62 63 63 63 63 64 63 62 63 63 63 62 63 62 62 62 57 54 54 54 60 60 59 59 59 59 59 59 59 59 58